Regional Weather Roundup
Issued by NWS

Home | Current Version | Previous Version | Graphics & Text | Print | Product List | Glossary On
Versions: 1 2 3 4 5 6 7 8 9 10 11 12 13 14 15 16 17 18 19 20 21 22 23 24 25 26 27 28 29 30 31 32 33 34 35 36 37 38 39 40 41 42 43 44 45 46 47 48 49 50
000
ASUS43 KOAX 290302
RWRNE

WEATHER ROUNDUP FOR NEBRASKA
NATIONAL WEATHER SERVICE OMAHA NE
1000 PM CDT WED JUN 28 2017

NOTES: SATELLITE DATA IS BEING USED TO AUGMENT CLOUD COVER ABOVE
       12000 FEET.
       "FAIR" INDICATES FEW OR NO CLOUDS BELOW 12,000 FEET WITH NO
       SIGNIFICANT WEATHER AND/OR OBSTRUCTIONS TO VISIBILITY.

  * THESE STATIONS DO NOT REPORT WEATHER SUCH AS RAIN...SNOW OR FOG.

NEZ001>004-019>022-054>056-290400-
NEBRASKA PANHANDLE

CITY           SKY/WX    TMP DP  RH WIND       PRES   REMARKS
SCOTTSBLUFF    PTCLDY    73  45  36 SE9       29.74F
ALLIANCE       CLOUDY    69  52  54 SE13      29.75F
CHADRON        TSTM      73  48  41 N9G37     29.79R
GORDON         MOCLDY    69  55  61 E5        29.77S THUNDER
KIMBALL        CLOUDY    65  46  50 SE9       29.84F
SIDNEY         CLOUDY    66  53  63 E12       29.84R
$$

NEZ057>060-069>072-079>082-290400-
SOUTHWEST NEBRASKA

CITY           SKY/WX    TMP DP  RH WIND       PRES   REMARKS
NORTH PLATTE   CLOUDY    71  58  63 E8        29.76R
IMPERIAL       CLOUDY    73  50  44 SE10      29.75F
LEXINGTON      CLOUDY    77  64  65 SE7       29.76R
MCCOOK         MOCLDY    79  57  46 E7        29.76R
OGALLALA       CLOUDY    76  47  35 NW18G41   29.84R THUNDER
$$

NEZ005>010-023>029-035>040-094-290400-
NORTH CENTRAL NEBRASKA

CITY           SKY/WX    TMP DP  RH WIND       PRES   REMARKS
VALENTINE      CLEAR     75  47  36 NE5       29.76R
AINSWORTH      PTCLDY    70  60  69 E6        29.76S
BROKEN BOW     PTCLDY    76  55  48 SE6       29.72F
O`NEILL        PTCLDY    74  59  58 NE5       29.74R
ORD            CLOUDY    75  57  53 CALM      29.71F
THEDFORD       PTCLDY    74  48  40 S6        29.77R
$$

NEZ041-046>049-061>064-073>077-083>087-290400-
SOUTH CENTRAL NEBRASKA

CITY           SKY/WX    TMP DP  RH WIND       PRES   REMARKS
GRAND ISLAND   CLOUDY    76  67  73 SE5       29.75R
AURORA         PTCLDY    74  68  82 SW7       29.75R
HASTINGS       CLOUDY    79  58  48 N6        29.75S
HEBRON         CLEAR     80  66  63 N3        29.71S
HOLDREGE       CLOUDY    76  58  54 E6        29.75F
KEARNEY *      CLOUDY    77  64  65 E5        29.76S
YORK           PTCLDY    73  66  78 W8        29.74R
$$

NEZ011>018-030>034-042>045-290400-
NORTHEAST NEBRASKA

CITY           SKY/WX    TMP DP  RH WIND       PRES   REMARKS
NORFOLK        PTCLDY    71  64  78 SW3       29.69R
ALBION         CLOUDY    75  63  65 CALM      29.72S
BLAIR          CLEAR     80  64  56 W5        29.69R
FREMONT        CLEAR     78  65  65 SW5       29.70R
TEKAMAH        PTCLDY    74  65  73 W6        29.67R
WAYNE          CLEAR     71  69  94 CALM      29.69R
$$

NEZ050>053-065>068-078-088>093-290400-
SOUTHEAST NEBRASKA

CITY           SKY/WX    TMP DP  RH WIND       PRES   REMARKS
LINCOLN        PTCLDY    80  66  62 CALM      29.71R
OMAHA EPPLEY   PTCLDY    77  65  66 NW3       29.67R
BEATRICE       CLEAR     76  73  90 N6        29.70R
FALLS CITY     MOCLDY    82  68  62 SW9       29.67R
NEBRASKA CITY  CLOUDY    81  72  76 NW3       29.70R
PLATTSMOUTH    MOCLDY    78  67  67 W3        29.69R
$$

NEZ044-045-051>053-067-290400-
OMAHA AREA

CITY           SKY/WX    TMP DP  RH WIND       PRES   REMARKS
OMAHA EPPLEY   PTCLDY    77  65  66 NW3       29.67R
BLAIR          CLEAR     80  64  56 W5        29.69R
FREMONT        CLEAR     78  65  65 SW5       29.70R
MILLARD        PTCLDY    77  68  73 CALM      29.68R
OFFUTT AFB     MOCLDY    75  67  75 CALM      29.67R
PLATTSMOUTH    MOCLDY    78  67  67 W3        29.69R
WAHOO          FAIR      75  67  74 W7        29.70R
$$



USA.gov is the U.S. government's official web portal to all federal, state and local government web resources and services.